| time (UTC) | temp C | wind direction | speed KPH | gust KPH | rain 1hr cm | rain 24hr cm | rain mn cm | humidity % | barometer mb |
| 20260506121404 | 11 | 339 | 1.6 | 8.0 | 0.00 | 0.00 | 0.00 | 93 | 1016.0 |
| 20260506120904 | 11 | 339 | 1.6 | 8.0 | 0.00 | 0.00 | 0.00 | 92 | 1015.9 |
| 20260506120519 | 10 | 336 | 1.6 | 8.0 | 0.00 | 0.00 | 0.00 | 93 | 1015.8 |
| 20260506120455 | 11 | 336 | 1.6 | 8.0 | 0.00 | 0.00 | 0.00 | 93 | 1015.9 |
| 20260506115400 | 10 | 336 | 1.6 | 3.2 | 0.00 | 0.00 | 0.00 | 93 | 1015.8 |
| 20260506114854 | 10 | 336 | 1.6 | 3.2 | 0.00 | 0.00 | 0.00 | 93 | 1015.8 |
| 20260506114348 | 10 | 336 | 1.6 | 3.2 | 0.00 | 0.00 | 0.00 | 92 | 1015.8 |
| 20260506113842 | 10 | 336 | 0.0 | 3.2 | 0.00 | 0.00 | 0.00 | 92 | 1015.8 |
| 20260506113342 | 10 | 336 | 0.0 | 1.6 | 0.00 | 0.00 | 0.00 | 92 | 1015.8 |
| 20260506112839 | 10 | 336 | 0.0 | 3.2 | 0.00 | 0.00 | 0.00 | 91 | 1015.8 |
| 20260506112337 | 10 | 336 | 1.6 | 4.8 | 0.00 | 0.00 | 0.00 | 91 | 1015.8 |
| 20260506111837 | 10 | 336 | 0.0 | 4.8 | 0.00 | 0.00 | 0.00 | 91 | 1015.7 |
| 20260506111337 | 10 | 336 | 1.6 | 4.8 | 0.00 | 0.00 | 0.00 | 91 | 1015.7 |
| 20260506111131 | 10 | 336 | 0.0 | 4.8 | 0.00 | 0.00 | 0.00 | 91 | 1015.6 |
| 20260506110333 | 10 | 336 | 0.0 | 3.2 | 0.00 | 0.00 | 0.00 | 91 | 1015.7 |
| 20260506105829 | 10 | 336 | 0.0 | 3.2 | 0.00 | 0.00 | 0.00 | 91 | 1015.7 |
| 20260506105329 | 10 | 336 | 1.6 | 3.2 | 0.00 | 0.00 | 0.00 | 91 | 1015.6 |
| 20260506104831 | 10 | 336 | 1.6 | 3.2 | 0.00 | 0.00 | 0.00 | 91 | 1015.6 |
| 20260506104329 | 10 | 336 | 1.6 | 3.2 | 0.00 | 0.00 | 0.00 | 91 | 1015.5 |
| 20260506104119 | 10 | 336 | 1.6 | 3.2 | 0.00 | 0.03 | 0.00 | 91 | 1015.5 |
| 20260506103330 | 11 | 336 | 1.6 | 3.2 | 0.00 | 0.03 | 0.00 | 91 | 1015.4 |
| 20260506102829 | 11 | 335 | 0.0 | 3.2 | 0.00 | 0.03 | 0.00 | 91 | 1015.4 |
| 20260506102328 | 11 | 335 | 0.0 | 3.2 | 0.00 | 0.03 | 0.00 | 91 | 1015.4 |
| 20260506101829 | 11 | 335 | 1.6 | 3.2 | 0.00 | 0.03 | 0.00 | 91 | 1015.4 |
| 20260506101330 | 11 | 333 | 1.6 | 4.8 | 0.00 | 0.03 | 0.00 | 91 | 1015.4 |
| 20260506100831 | 11 | 331 | 1.6 | 4.8 | 0.00 | 0.03 | 0.00 | 90 | 1015.3 |
| 20260506100330 | 11 | 329 | 1.6 | 4.8 | 0.00 | 0.03 | 0.00 | 90 | 1015.1 |
| 20260506095829 | 11 | 329 | 0.0 | 3.2 | 0.00 | 0.03 | 0.00 | 89 | 1015.2 |
| 20260506095333 | 11 | 329 | 0.0 | 6.4 | 0.00 | 0.03 | 0.00 | 90 | 1015.1 |
| 20260506094831 | 11 | 329 | 1.6 | 6.4 | 0.00 | 0.03 | 0.00 | 91 | 1015.4 |
| 20260506094330 | 11 | 329 | 3.2 | 6.4 | 0.00 | 0.03 | 0.00 | 91 | 1015.1 |
| 20260506093830 | 11 | 329 | 4.8 | 6.4 | 0.00 | 0.03 | 0.00 | 91 | 1014.9 |
| 20260506093330 | 11 | 329 | 3.2 | 6.4 | 0.00 | 0.03 | 0.00 | 90 | 1015.0 |
| 20260506092829 | 11 | 329 | 3.2 | 4.8 | 0.00 | 0.03 | 0.00 | 90 | 1015.0 |
| 20260506092331 | 11 | 329 | 1.6 | 4.8 | 0.00 | 0.03 | 0.00 | 90 | 1015.0 |
| 20260506091829 | 11 | 329 | 1.6 | 3.2 | 0.00 | 0.03 | 0.00 | 90 | 1014.9 |
| 20260506091331 | 11 | 329 | 1.6 | 3.2 | 0.00 | 0.03 | 0.00 | 90 | 1015.0 |
| 20260506091124 | 11 | 329 | 1.6 | 3.2 | 0.00 | 0.03 | 0.00 | 89 | 1015.0 |
| 20260506090329 | 11 | 329 | 1.6 | 3.2 | 0.00 | 0.03 | 0.00 | 89 | 1015.0 |
| 20260506090234 | 11 | 329 | 0.0 | 1.6 | 0.00 | 0.03 | 0.00 | 89 | 1015.1 |
| 20260506085905 | 11 | 329 | 0.0 | 1.6 | 0.00 | 0.03 | 0.00 | 89 | 1015.1 |
| 20260506084831 | 11 | 329 | 0.0 | 1.6 | 0.00 | 0.03 | 0.00 | 88 | 1015.1 |
| 20260506084331 | 11 | 329 | 0.0 | 1.6 | 0.00 | 0.03 | 0.00 | 88 | 1015.3 |
| 20260506083829 | 11 | 329 | 0.0 | 1.6 | 0.00 | 0.03 | 0.00 | 88 | 1015.2 |
| 20260506083323 | 11 | 329 | 0.0 | 0.0 | 0.00 | 0.03 | 0.00 | 87 | 1015.3 |
| 20260506082817 | 11 | 329 | 0.0 | 1.6 | 0.00 | 0.03 | 0.00 | 87 | 1015.5 |
| 20260506082602 | 11 | 329 | 0.0 | 1.6 | 0.00 | 0.03 | 0.00 | 87 | 1015.7 |
| 20260506081802 | 11 | 329 | 0.0 | 1.6 | 0.00 | 0.03 | 0.00 | 87 | 1015.7 |
| 20260506081304 | 12 | 329 | 0.0 | 3.2 | 0.00 | 0.05 | 0.00 | 87 | 1015.7 |
| 20260506080806 | 12 | 329 | 0.0 | 3.2 | 0.00 | 0.05 | 0.00 | 87 | 1015.8 |
| 20260506080302 | 12 | 329 | 0.0 | 4.8 | 0.00 | 0.05 | 0.00 | 87 | 1015.8 |
| 20260506073301 | 12 | 329 | 3.2 | 8.0 | 0.00 | 0.05 | 0.00 | 86 | 1015.2 |
| 20260506072801 | 12 | 328 | 3.2 | 6.4 | 0.00 | 0.08 | 0.00 | 86 | 1015.1 |
| 20260506072301 | 12 | 333 | 1.6 | 6.4 | 0.00 | 0.08 | 0.00 | 86 | 1015.1 |
| 20260506071804 | 12 | 333 | 1.6 | 4.8 | 0.00 | 0.08 | 0.00 | 86 | 1015.1 |
| 20260506071303 | 12 | 331 | 3.2 | 4.8 | 0.00 | 0.08 | 0.00 | 86 | 1015.0 |
| 20260506070804 | 12 | 333 | 3.2 | 4.8 | 0.00 | 0.08 | 0.00 | 86 | 1014.9 |
| 20260506070301 | 12 | 333 | 3.2 | 8.0 | 0.00 | 0.08 | 0.00 | 86 | 1014.9 |
| 20260506062300 | 12 | 316 | 1.6 | 6.4 | 0.00 | 0.08 | 0.08 | 87 | 1014.4 |
| 20260506061801 | 12 | 308 | 1.6 | 6.4 | 0.00 | 0.08 | 0.08 | 87 | 1014.4 |
| 20260506061302 | 12 | 308 | 1.6 | 4.8 | 0.00 | 0.08 | 0.08 | 87 | 1014.2 |
| 20260506061059 | 12 | 308 | 1.6 | 4.8 | 0.00 | 0.08 | 0.08 | 87 | 1014.2 |
| 20260506060301 | 12 | 308 | 1.6 | 3.2 | 0.00 | 0.08 | 0.08 | 87 | 1014.2 |
| 20260506060112 | 12 | 308 | 1.6 | 3.2 | 0.00 | 0.08 | 0.08 | 87 | 1014.1 |
| 20260506051302 | 13 | 308 | 1.6 | 3.2 | 0.00 | 0.08 | 0.08 | 86 | 1013.7 |
| 20260506050802 | 13 | 308 | 1.6 | 3.2 | 0.00 | 0.08 | 0.08 | 85 | 1013.7 |
| 20260506050555 | 13 | 307 | 1.6 | 3.2 | 0.00 | 0.08 | 0.08 | 85 | 1013.6 |
| 20260506050121 | 13 | 308 | 1.6 | 3.2 | 0.00 | 0.08 | 0.08 | 85 | 1013.7 |
| 20260506044801 | 14 | 307 | 0.0 | 3.2 | 0.00 | 0.08 | 0.08 | 84 | 1013.6 |
| 20260506044557 | 14 | 308 | 1.6 | 3.2 | 0.00 | 0.08 | 0.08 | 84 | 1013.6 |
| 20260506043803 | 14 | 307 | 1.6 | 3.2 | 0.00 | 0.08 | 0.08 | 83 | 1013.4 |
| 20260506043303 | 14 | 308 | 3.2 | 6.4 | 0.00 | 0.08 | 0.08 | 83 | 1013.3 |
| 20260506042920 | 14 | 308 | 3.2 | 4.8 | 0.00 | 0.08 | 0.08 | 83 | 1013.3 |
| 20260506042854 | 14 | 308 | 3.2 | 6.4 | 0.00 | 0.08 | 0.08 | 83 | 1013.4 |
| 20260506041804 | 14 | 308 | 3.2 | 4.8 | 0.00 | 0.08 | 0.08 | 82 | 1013.1 |
| 20260506041305 | 14 | 308 | 1.6 | 4.8 | 0.00 | 0.08 | 0.08 | 82 | 1013.1 |
| 20260506040802 | 15 | 308 | 0.0 | 3.2 | 0.00 | 0.08 | 0.08 | 81 | 1013.1 |
| 20260506040304 | 15 | 308 | 1.6 | 4.8 | 0.00 | 0.08 | 0.08 | 81 | 1013.1 |
| 20260506035804 | 15 | 308 | 1.6 | 4.8 | 0.00 | 0.08 | 0.08 | 80 | 1012.9 |
| 20260506035554 | 15 | 308 | 3.2 | 4.8 | 0.00 | 0.08 | 0.08 | 80 | 1013.0 |
| 20260506034803 | 15 | 308 | 1.6 | 4.8 | 0.00 | 0.08 | 0.08 | 80 | 1012.9 |
| 20260506034303 | 15 | 308 | 1.6 | 4.8 | 0.00 | 0.08 | 0.08 | 79 | 1012.9 |
| 20260506033804 | 15 | 308 | 1.6 | 4.8 | 0.00 | 0.08 | 0.08 | 79 | 1012.8 |
| 20260506033303 | 15 | 308 | 3.2 | 4.8 | 0.00 | 0.08 | 0.08 | 79 | 1012.8 |
| 20260506032802 | 15 | 308 | 3.2 | 4.8 | 0.00 | 0.08 | 0.08 | 79 | 1012.7 |
| 20260506032305 | 16 | 308 | 1.6 | 4.8 | 0.00 | 0.08 | 0.08 | 80 | 1012.7 |
| 20260506031851 | 16 | 308 | 1.6 | 4.8 | 0.00 | 0.08 | 0.08 | 76 | 1012.5 |
| 20260506031836 | 16 | 307 | 1.6 | 4.8 | 0.00 | 0.08 | 0.08 | 77 | 1012.4 |
| 20260506031059 | 16 | 308 | 1.6 | 4.8 | 0.00 | 0.08 | 0.08 | 76 | 1012.4 |
| 20260506030549 | 16 | 308 | 1.6 | 4.8 | 0.00 | 0.08 | 0.08 | 75 | 1012.5 |
| 20260506025753 | 16 | 308 | 1.6 | 6.4 | 0.00 | 0.08 | 0.08 | 75 | 1012.5 |
| 20260506025542 | 17 | 307 | 1.6 | 6.4 | 0.00 | 0.08 | 0.08 | 75 | 1012.5 |
| 20260506024741 | 17 | 307 | 3.2 | 6.4 | 0.00 | 0.08 | 0.08 | 74 | 1012.3 |
| 20260506024237 | 17 | 308 | 3.2 | 6.4 | 0.00 | 0.08 | 0.08 | 75 | 1012.3 |
| 20260506024033 | 17 | 308 | 3.2 | 11.3 | 0.00 | 0.08 | 0.08 | 75 | 1012.3 |
| 20260506023237 | 17 | 308 | 3.2 | 11.3 | 0.00 | 0.08 | 0.08 | 72 | 1012.3 |
| 20260506022738 | 18 | 306 | 3.2 | 8.0 | 0.00 | 0.08 | 0.08 | 71 | 1012.2 |
| 20260506022237 | 18 | 306 | 4.8 | 11.3 | 0.00 | 0.08 | 0.08 | 70 | 1012.1 |
| 20260506021737 | 18 | 304 | 4.8 | 11.3 | 0.00 | 0.08 | 0.08 | 70 | 1012.1 |
| 20260506021237 | 18 | 299 | 4.8 | 8.0 | 0.00 | 0.08 | 0.08 | 69 | 1012.1 |
| 20260506020738 | 18 | 323 | 3.2 | 14.5 | 0.00 | 0.08 | 0.08 | 68 | 1012.1 |
| 20260506020236 | 19 | 309 | 4.8 | 14.5 | 0.00 | 0.08 | 0.08 | 67 | 1012.0 |
| 20260506015737 | 20 | 308 | 4.8 | 14.5 | 0.00 | 0.08 | 0.08 | 67 | 1012.0 |
| 20260506015236 | 20 | 311 | 4.8 | 14.5 | 0.00 | 0.08 | 0.08 | 66 | 1012.0 |
| 20260506015031 | 20 | 313 | 4.8 | 11.3 | 0.00 | 0.08 | 0.08 | 66 | 1011.9 |
| 20260506014231 | 20 | 316 | 4.8 | 11.3 | 0.00 | 0.08 | 0.08 | 67 | 1012.0 |
| 20260506013733 | 20 | 349 | 3.2 | 11.3 | 0.00 | 0.08 | 0.08 | 67 | 1011.8 |
| 20260506013230 | 20 | 300 | 3.2 | 8.0 | 0.00 | 0.08 | 0.08 | 68 | 1011.9 |
| 20260506012852 | 19 | 298 | 4.8 | 8.0 | 0.00 | 0.08 | 0.08 | 69 | 1012.1 |
| 20260506012826 | 20 | 300 | 3.2 | 8.0 | 0.00 | 0.08 | 0.08 | 68 | 1011.9 |
| 20260506011821 | 18 | 351 | 3.2 | 12.9 | 0.00 | 0.08 | 0.08 | 71 | 1012.1 |
| 20260506011803 | 18 | 298 | 4.8 | 12.9 | 0.00 | 0.08 | 0.08 | 70 | 1012.0 |
| 20260506010722 | 18 | 312 | 3.2 | 14.5 | 0.00 | 0.08 | 0.08 | 71 | 1012.1 |
| 20260506010216 | 18 | 318 | 4.8 | 14.5 | 0.00 | 0.08 | 0.08 | 71 | 1012.2 |
| 20260506005710 | 18 | 293 | 4.8 | 12.9 | 0.00 | 0.08 | 0.08 | 71 | 1012.2 |
| 20260506005205 | 18 | 299 | 4.8 | 12.9 | 0.00 | 0.08 | 0.08 | 71 | 1012.2 |
| 20260506004703 | 18 | 345 | 4.8 | 11.3 | 0.00 | 0.08 | 0.08 | 72 | 1012.2 |
| 20260506004205 | 18 | 298 | 3.2 | 11.3 | 0.00 | 0.08 | 0.08 | 71 | 1012.2 |
| 20260506003704 | 18 | 293 | 3.2 | 9.7 | 0.00 | 0.08 | 0.08 | 72 | 1012.2 |
| 20260506003203 | 18 | 5 | 3.2 | 9.7 | 0.00 | 0.08 | 0.08 | 72 | 1012.1 |
| 20260506002702 | 18 | 331 | 4.8 | 11.3 | 0.00 | 0.08 | 0.08 | 71 | 1012.1 |
| 20260506002428 | 18 | 267 | 4.8 | 11.3 | 0.00 | 0.08 | 0.08 | 69 | 1011.9 |
| 20260506002205 | 18 | 267 | 4.8 | 11.3 | 0.00 | 0.08 | 0.08 | 69 | 1011.9 |
| 20260506001703 | 18 | 303 | 4.8 | 14.5 | 0.00 | 0.08 | 0.08 | 69 | 1012.0 |
| 20260506001201 | 18 | 301 | 4.8 | 14.5 | 0.00 | 0.08 | 0.08 | 70 | 1012.0 |
| 20260506000702 | 18 | 314 | 3.2 | 9.7 | 0.00 | 0.08 | 0.08 | 70 | 1012.0 |
| 20260506000200 | 18 | 0 | 3.2 | 9.7 | 0.00 | 0.08 | 0.08 | 70 | 1011.9 |
| 20260505235701 | 18 | 345 | 3.2 | 8.0 | 0.00 | 0.08 | 0.08 | 70 | 1011.9 |
| 20260505235201 | 18 | 0 | 4.8 | 8.0 | 0.00 | 0.08 | 0.08 | 69 | 1011.9 |
| 20260505234703 | 18 | 0 | 3.2 | 8.0 | 0.00 | 0.08 | 0.08 | 70 | 1011.9 |
| 20260505234202 | 18 | 0 | 3.2 | 8.0 | 0.00 | 0.08 | 0.08 | 70 | 1012.0 |
| 20260505233702 | 18 | 0 | 3.2 | 8.0 | 0.00 | 0.08 | 0.08 | 71 | 1011.9 |
| 20260505233458 | 18 | 0 | 3.2 | 8.0 | 0.00 | 0.08 | 0.08 | 71 | 1011.9 |
| 20260505232703 | 18 | 350 | 1.6 | 8.0 | 0.00 | 0.08 | 0.08 | 71 | 1011.9 |
| 20260505232201 | 18 | 349 | 3.2 | 8.0 | 0.00 | 0.08 | 0.08 | 71 | 1011.9 |
| 20260505231701 | 18 | 355 | 3.2 | 8.0 | 0.00 | 0.08 | 0.08 | 70 | 1011.9 |
| 20260505231202 | 18 | 355 | 3.2 | 8.0 | 0.00 | 0.08 | 0.08 | 72 | 1011.9 |
| 20260505230703 | 18 | 355 | 3.2 | 8.0 | 0.00 | 0.08 | 0.08 | 71 | 1011.9 |
| 20260505230201 | 18 | 355 | 3.2 | 14.5 | 0.00 | 0.08 | 0.08 | 72 | 1012.0 |
| 20260505225701 | 18 | 302 | 4.8 | 14.5 | 0.00 | 0.08 | 0.08 | 75 | 1012.0 |
| 20260505225200 | 18 | 320 | 4.8 | 14.5 | 0.00 | 0.08 | 0.08 | 72 | 1011.9 |
| 20260505224701 | 18 | 318 | 4.8 | 14.5 | 0.00 | 0.08 | 0.08 | 73 | 1011.9 |
| 20260505224201 | 17 | 355 | 4.8 | 14.5 | 0.00 | 0.08 | 0.08 | 73 | 1011.8 |
| 20260505223701 | 17 | 9 | 8.0 | 14.5 | 0.00 | 0.08 | 0.08 | 71 | 1011.9 |
| 20260505223203 | 18 | 302 | 8.0 | 20.9 | 0.00 | 0.08 | 0.08 | 72 | 1012.1 |
| 20260505222702 | 18 | 319 | 8.0 | 20.9 | 0.00 | 0.08 | 0.08 | 70 | 1012.1 |
| 20260505222517 | 18 | 346 | 6.4 | 16.1 | 0.00 | 0.08 | 0.08 | 71 | 1012.1 |
| 20260505221703 | 18 | 315 | 6.4 | 16.1 | 0.00 | 0.08 | 0.08 | 71 | 1012.1 |
| 20260505221202 | 18 | 351 | 6.4 | 17.7 | 0.00 | 0.08 | 0.08 | 72 | 1012.1 |
| 20260505220703 | 18 | 355 | 6.4 | 17.7 | 0.00 | 0.08 | 0.08 | 71 | 1012.1 |
| 20260505220202 | 18 | 0 | 6.4 | 17.7 | 0.00 | 0.08 | 0.08 | 71 | 1012.2 |
| 20260505215821 | 18 | 313 | 4.8 | 14.5 | 0.00 | 0.08 | 0.08 | 72 | 1012.2 |
| 20260505215758 | 18 | 307 | 6.4 | 17.7 | 0.00 | 0.08 | 0.08 | 72 | 1012.2 |
| 20260505214704 | 18 | 346 | 6.4 | 12.9 | 0.00 | 0.08 | 0.08 | 72 | 1012.2 |
| 20260505214203 | 18 | 304 | 6.4 | 12.9 | 0.00 | 0.08 | 0.08 | 70 | 1012.3 |
| 20260505213706 | 18 | 309 | 4.8 | 12.9 | 0.00 | 0.08 | 0.08 | 71 | 1012.4 |
| 20260505213202 | 18 | 306 | 4.8 | 12.9 | 0.00 | 0.08 | 0.08 | 71 | 1012.3 |
| 20260505212701 | 18 | 355 | 4.8 | 12.9 | 0.00 | 0.08 | 0.08 | 72 | 1012.4 |
| 20260505212202 | 18 | 13 | 4.8 | 14.5 | 0.00 | 0.08 | 0.08 | 72 | 1012.4 |
| 20260505211701 | 17 | 5 | 6.4 | 14.5 | 0.00 | 0.08 | 0.08 | 72 | 1012.4 |
| 20260505211202 | 17 | 277 | 6.4 | 14.5 | 0.00 | 0.08 | 0.08 | 71 | 1012.4 |
| 20260505210701 | 17 | 309 | 4.8 | 14.5 | 0.00 | 0.08 | 0.08 | 74 | 1012.4 |
| 20260505210502 | 17 | 279 | 4.8 | 14.5 | 0.00 | 0.08 | 0.08 | 74 | 1012.3 |
| 20260505210000 | 17 | 299 | 4.8 | 14.5 | 0.00 | 0.08 | 0.08 | 73 | 1012.3 |
| 20260505205324 | 17 | 319 | 4.8 | 14.5 | 0.00 | 0.08 | 0.08 | 72 | 1012.4 |
| 20260505205258 | 17 | 350 | 4.8 | 14.5 | 0.00 | 0.08 | 0.08 | 73 | 1012.3 |
| 20260505204202 | 17 | 321 | 4.8 | 12.9 | 0.00 | 0.08 | 0.08 | 73 | 1012.5 |
| 20260505204001 | 17 | 327 | 4.8 | 12.9 | 0.00 | 0.08 | 0.08 | 72 | 1012.7 |
| 20260505203202 | 17 | 289 | 4.8 | 12.9 | 0.00 | 0.08 | 0.08 | 72 | 1012.8 |
| 20260505202701 | 17 | 17 | 4.8 | 12.9 | 0.00 | 0.08 | 0.08 | 73 | 1012.7 |
| 20260505202201 | 17 | 24 | 4.8 | 12.9 | 0.00 | 0.08 | 0.08 | 74 | 1012.7 |
| 20260505201701 | 17 | 0 | 4.8 | 12.9 | 0.00 | 0.08 | 0.08 | 74 | 1012.8 |
| 20260505201202 | 17 | 309 | 4.8 | 12.9 | 0.00 | 0.08 | 0.08 | 73 | 1012.7 |
| 20260505200701 | 17 | 321 | 4.8 | 16.1 | 0.00 | 0.08 | 0.08 | 72 | 1012.8 |
| 20260505200203 | 17 | 284 | 4.8 | 16.1 | 0.00 | 0.08 | 0.08 | 71 | 1012.7 |
| 20260505195702 | 17 | 335 | 4.8 | 16.1 | 0.00 | 0.08 | 0.08 | 71 | 1012.8 |
| 20260505195201 | 17 | 282 | 4.8 | 16.1 | 0.00 | 0.08 | 0.08 | 73 | 1012.7 |
| 20260505194703 | 17 | 273 | 4.8 | 14.5 | 0.00 | 0.08 | 0.08 | 73 | 1012.7 |
| 20260505194201 | 17 | 295 | 4.8 | 12.9 | 0.00 | 0.08 | 0.08 | 72 | 1012.7 |
| 20260505193702 | 17 | 323 | 4.8 | 16.1 | 0.00 | 0.08 | 0.08 | 74 | 1012.8 |
| 20260505193201 | 17 | 297 | 4.8 | 16.1 | 0.00 | 0.08 | 0.08 | 74 | 1012.8 |
| 20260505192702 | 16 | 294 | 6.4 | 16.1 | 0.00 | 0.08 | 0.08 | 74 | 1012.7 |
| 20260505192201 | 16 | 281 | 4.8 | 16.1 | 0.00 | 0.08 | 0.08 | 73 | 1012.7 |
| 20260505191702 | 16 | 305 | 4.8 | 16.1 | 0.00 | 0.08 | 0.08 | 73 | 1012.8 |
| 20260505191201 | 16 | 335 | 4.8 | 16.1 | 0.00 | 0.08 | 0.08 | 73 | 1012.9 |
| 20260505190701 | 16 | 321 | 4.8 | 16.1 | 0.00 | 0.08 | 0.08 | 74 | 1012.8 |
| 20260505190201 | 16 | 308 | 4.8 | 12.9 | 0.00 | 0.08 | 0.08 | 74 | 1012.8 |
| 20260505185701 | 16 | 288 | 4.8 | 12.9 | 0.00 | 0.08 | 0.08 | 73 | 1012.8 |
| 20260505185205 | 17 | 304 | 4.8 | 14.5 | 0.00 | 0.08 | 0.08 | 73 | 1012.7 |
| 20260505184702 | 17 | 309 | 6.4 | 19.3 | 0.00 | 0.10 | 0.08 | 72 | 1012.6 |
| 20260505184201 | 16 | 293 | 6.4 | 19.3 | 0.00 | 0.10 | 0.08 | 72 | 1012.6 |
| 20260505183702 | 17 | 274 | 4.8 | 14.5 | 0.00 | 0.10 | 0.08 | 72 | 1012.6 |
| 20260505183202 | 17 | 321 | 4.8 | 12.9 | 0.00 | 0.13 | 0.08 | 72 | 1012.6 |
| 20260505182704 | 17 | 277 | 4.8 | 12.9 | 0.00 | 0.13 | 0.08 | 71 | 1012.5 |
| 20260505182201 | 17 | 271 | 4.8 | 12.9 | 0.00 | 0.13 | 0.08 | 73 | 1012.5 |
| 20260505181701 | 17 | 332 | 4.8 | 12.9 | 0.00 | 0.13 | 0.08 | 74 | 1012.5 |
| 20260505181459 | 16 | 321 | 4.8 | 12.9 | 0.00 | 0.13 | 0.08 | 76 | 1012.4 |
| 20260505180808 | 16 | 5 | 4.8 | 9.7 | 0.00 | 0.15 | 0.08 | 77 | 1012.5 |
| 20260505180742 | 16 | 304 | 4.8 | 9.7 | 0.00 | 0.13 | 0.08 | 75 | 1012.5 |
| 20260505175701 | 15 | 270 | 4.8 | 9.7 | 0.00 | 0.15 | 0.08 | 78 | 1012.5 |
| 20260505175457 | 15 | 325 | 4.8 | 11.3 | 0.00 | 0.15 | 0.08 | 78 | 1012.5 |
| 20260505175016 | 15 | 281 | 4.8 | 11.3 | 0.00 | 0.15 | 0.08 | 76 | 1012.5 |
| 20260505174201 | 15 | 254 | 4.8 | 11.3 | 0.00 | 0.15 | 0.08 | 78 | 1012.4 |
| 20260505173701 | 15 | 355 | 4.8 | 11.3 | 0.00 | 0.15 | 0.08 | 78 | 1012.3 |
| 20260505173517 | 14 | 290 | 4.8 | 11.3 | 0.00 | 0.15 | 0.08 | 80 | 1012.2 |
| 20260505172702 | 14 | 297 | 4.8 | 11.3 | 0.00 | 0.15 | 0.08 | 80 | 1012.3 |
| 20260505172202 | 14 | 301 | 4.8 | 11.3 | 0.00 | 0.15 | 0.08 | 80 | 1012.2 |
| 20260505172017 | 14 | 293 | 4.8 | 8.0 | 0.00 | 0.15 | 0.08 | 80 | 1012.2 |
| 20260505171202 | 14 | 304 | 3.2 | 8.0 | 0.00 | 0.15 | 0.08 | 82 | 1012.3 |
| 20260505170701 | 13 | 321 | 4.8 | 8.0 | 0.00 | 0.18 | 0.08 | 82 | 1012.3 |
| 20260505170202 | 13 | 298 | 4.8 | 9.7 | 0.00 | 0.18 | 0.08 | 82 | 1012.3 |
| 20260505165702 | 13 | 334 | 3.2 | 9.7 | 0.00 | 0.18 | 0.08 | 83 | 1012.3 |
| 20260505165204 | 13 | 302 | 3.2 | 8.0 | 0.00 | 0.18 | 0.08 | 84 | 1012.3 |
| 20260505164701 | 13 | 288 | 3.2 | 14.5 | 0.00 | 0.18 | 0.08 | 83 | 1012.4 |
| 20260505164201 | 13 | 317 | 4.8 | 14.5 | 0.00 | 0.18 | 0.08 | 83 | 1012.3 |
| 20260505163702 | 13 | 320 | 4.8 | 14.5 | 0.00 | 0.18 | 0.08 | 84 | 1012.2 |
| 20260505163203 | 13 | 331 | 4.8 | 14.5 | 0.00 | 0.18 | 0.08 | 85 | 1012.2 |
| 20260505162705 | 13 | 284 | 3.2 | 8.0 | 0.00 | 0.18 | 0.08 | 85 | 1012.2 |
| 20260505162458 | 13 | 290 | 3.2 | 8.0 | 0.00 | 0.18 | 0.08 | 86 | 1012.2 |
| 20260505161701 | 13 | 300 | 3.2 | 8.0 | 0.00 | 0.18 | 0.08 | 86 | 1012.1 |
| 20260505161202 | 13 | 296 | 3.2 | 8.0 | 0.00 | 0.18 | 0.08 | 86 | 1012.2 |
| 20260505160702 | 13 | 309 | 3.2 | 8.0 | 0.00 | 0.18 | 0.08 | 86 | 1012.2 |
| 20260505160202 | 13 | 325 | 3.2 | 8.0 | 0.00 | 0.18 | 0.08 | 86 | 1012.1 |
| 20260505153202 | 12 | 317 | 3.2 | 9.7 | 0.00 | 0.18 | 0.08 | 87 | 1012.1 |
| 20260505152701 | 12 | 343 | 3.2 | 9.7 | 0.00 | 0.18 | 0.08 | 87 | 1012.1 |
| 20260505152202 | 12 | 332 | 3.2 | 9.7 | 0.00 | 0.18 | 0.08 | 87 | 1012.0 |
| 20260505151701 | 12 | 323 | 3.2 | 6.4 | 0.00 | 0.18 | 0.08 | 88 | 1011.8 |
| 20260505151204 | 12 | 344 | 3.2 | 6.4 | 0.00 | 0.18 | 0.08 | 89 | 1011.8 |
| 20260505150702 | 12 | 5 | 3.2 | 6.4 | 0.00 | 0.18 | 0.08 | 90 | 1011.8 |
| 20260505150203 | 12 | 9 | 3.2 | 6.4 | 0.00 | 0.18 | 0.08 | 90 | 1011.8 |
| 20260505140501 | 11 | 232 | 0.0 | 3.2 | 0.00 | 0.18 | 0.08 | 93 | 1011.5 |
| 20260505130200 | 11 | 11 | 0.0 | 3.2 | 0.00 | 0.18 | 0.08 | 92 | 1011.2 |
| 20260505124939 | 11 | 11 | 0.0 | 3.2 | 0.00 | 0.18 | 0.08 | 92 | 1011.1 |
| 20260505124426 | 11 | 11 | 0.0 | 3.2 | 0.00 | 0.18 | 0.08 | 92 | 1011.0 |
| 20260505123637 | 11 | 11 | 0.0 | 3.2 | 0.00 | 0.18 | 0.08 | 92 | 1010.8 |
| 20260505123136 | 11 | 11 | 0.0 | 1.6 | 0.00 | 0.18 | 0.08 | 92 | 1010.9 |
| 20260505122633 | 11 | 11 | 0.0 | 4.8 | 0.00 | 0.18 | 0.08 | 92 | 1011.0 |
| 20260505122132 | 11 | 11 | 0.0 | 4.8 | 0.00 | 0.18 | 0.08 | 92 | 1011.0 |
| 20260505121632 | 11 | 11 | 0.0 | 4.8 | 0.00 | 0.18 | 0.08 | 92 | 1010.9 |